FW1643 Weather Reports


time (UTC)temp
C
wind
direction
speed
KPH
gust
KPH
rain 1hr
cm
rain 24hr
cm
rain mn
cm
humidity
%
barometer
mb
20260507093023 28 277 0.0 0.0 0.00 0.00 0.00 37 993.0
20260507091525 28 274 0.0 0.0 0.00 0.00 0.00 36 993.1
20260507090018 28 265 0.0 0.0 0.00 0.00 0.00 37 993.0
20260507084520 28 320 0.0 0.0 0.00 0.00 0.00 36 993.1
20260507083014 27 326 0.0 0.0 0.00 0.00 0.00 37 993.0
20260507081512 27 241 0.0 0.0 0.00 0.00 0.00 40 993.1
20260507080011 28 286 0.0 0.0 0.00 0.00 0.00 38 993.0
20260507074508 28 285 0.0 0.0 0.00 0.00 0.00 38 993.0
20260507073003 27 293 0.0 0.0 0.00 0.00 0.00 37 992.9
20260507071600 27 265 0.0 0.0 0.00 0.00 0.00 42 993.0
20260507070105 26 299 0.0 0.0 0.00 0.00 0.00 44 993.1
20260507064559 25 286 0.0 0.0 0.00 0.00 0.00 44 993.2
20260507063100 26 265 0.0 0.0 0.00 0.00 0.00 42 993.0
20260507061556 26 285 0.0 0.0 0.00 0.00 0.00 41 993.1
20260507060055 26 295 0.0 0.0 0.00 0.00 0.00 41 992.8
20260507054551 26 303 0.0 0.0 0.00 0.00 0.00 42 992.9
20260507053048 25 283 0.0 0.0 0.00 0.00 0.00 45 992.9
20260507051546 25 293 0.0 0.0 0.00 0.00 0.00 45 992.8
20260507050042 24 276 0.0 0.0 0.00 0.00 0.00 47 992.8
20260507044553 23 287 0.0 0.0 0.00 0.00 0.00 49 992.7
20260507043034 22 293 0.0 0.0 0.00 0.00 0.00 51 992.6
20260507041531 21 275 0.0 0.0 0.00 0.00 0.00 53 992.5
20260507040033 20 270 0.0 0.0 0.00 0.00 0.00 55 992.5
20260507034525 18 270 0.0 0.0 0.00 0.00 0.00 58 992.2
20260507033027 17 270 0.0 0.0 0.00 0.00 0.00 61 992.1
20260507031515 15 276 0.0 0.0 0.00 0.00 0.00 64 992.0
20260507030012 14 276 0.0 0.0 0.00 0.00 0.00 66 992.0
20260507024513 13 276 0.0 0.0 0.00 0.00 0.00 66 992.0
20260507023011 13 234 0.0 0.0 0.00 0.00 0.00 66 991.8
20260507021510 13 270 0.0 0.0 0.00 0.00 0.00 65 991.9
20260507020010 13 278 0.0 0.0 0.00 0.00 0.00 65 991.8
20260507014510 13 281 0.0 0.0 0.00 0.00 0.00 65 991.8
20260507013008 13 265 0.0 0.0 0.00 0.00 0.00 66 991.9
20260507011518 12 274 0.0 0.0 0.00 0.00 0.00 67 991.8
20260507010005 11 253 0.0 0.0 0.00 0.00 0.00 70 991.8
20260507004503 11 280 0.0 0.0 0.00 0.00 0.00 70 991.6
20260507003001 11 292 0.0 0.0 0.00 0.00 0.00 71 991.7
20260507001608 11 251 0.0 0.0 0.00 0.00 0.00 72 991.7
20260507000057 11 265 0.0 0.0 0.00 0.00 0.00 71 991.7
20260506234604 12 270 0.0 0.0 0.00 0.00 0.00 69 991.3
20260506233055 12 265 0.0 0.0 0.00 0.00 0.00 67 991.4
20260506231553 13 270 0.0 0.0 0.00 0.00 0.00 65 991.4
20260506230045 13 270 0.0 0.0 0.00 0.00 0.00 63 991.4
20260506224543 14 276 0.0 0.0 0.00 0.00 0.00 60 991.3
20260506223041 15 275 0.0 0.0 0.00 0.00 0.00 59 991.2
20260506221539 15 278 0.0 0.0 0.00 0.00 0.00 58 991.1
20260506220038 15 265 0.0 0.0 0.00 0.00 0.00 59 991.1
20260506214535 15 265 0.0 0.0 0.00 0.00 0.00 60 991.1
20260506213035 13 265 0.0 0.0 0.00 0.00 0.00 62 990.9
20260506211527 13 270 0.0 0.0 0.00 0.00 0.00 64 990.9
20260506210031 13 291 0.0 0.0 0.00 0.00 0.00 67 990.9
20260506204525 13 291 0.0 0.0 0.00 0.00 0.00 69 990.7
20260506203033 13 291 0.0 0.0 0.00 0.00 0.00 66 990.8
20260506201522 14 292 0.0 0.0 0.00 0.00 0.00 62 990.5
20260506200022 15 252 0.0 0.0 0.00 0.00 0.00 63 990.3
20260506194522 16 270 0.0 0.0 0.00 0.00 0.00 59 990.3
20260506193021 16 265 0.0 0.0 0.00 0.00 0.00 53 990.2
20260506191522 16 238 0.0 0.0 0.00 0.00 0.00 53 990.3
20260506190021 17 253 0.0 0.0 0.00 0.00 0.00 53 990.2
20260506184520 17 247 0.0 0.0 0.00 0.00 0.00 53 990.1
20260506183019 17 234 0.0 0.0 0.00 0.00 0.00 53 990.2
20260506181519 17 244 0.0 0.0 0.00 0.00 0.00 52 990.1
20260506180025 17 260 0.0 0.0 0.00 0.00 0.00 53 990.0
20260506174520 18 235 0.0 0.0 0.00 0.00 0.00 51 989.8
20260506173020 19 265 0.0 0.0 0.00 0.00 0.00 48 989.8
20260506171517 20 224 0.0 0.0 0.00 0.00 0.00 45 989.7
20260506170017 21 265 0.0 0.0 0.00 0.00 0.00 44 989.7
20260506164517 23 265 0.0 0.0 0.00 0.00 0.00 39 989.4
20260506163023 24 283 0.0 0.0 0.00 0.00 0.00 35 989.3
20260506161516 25 297 0.0 0.0 0.00 0.00 0.00 34 989.3
20260506160017 25 295 0.0 0.0 0.00 0.00 0.00 33 989.4
20260506154514 26 297 0.0 0.0 0.00 0.00 0.00 32 989.5
20260506153013 26 324 0.0 0.0 0.00 0.00 0.00 32 989.5
20260506151513 26 296 0.0 0.0 0.00 0.00 0.00 31 989.4
20260506150013 27 319 0.0 0.0 0.00 0.00 0.00 29 989.4
20260506144512 27 327 0.0 0.0 0.00 0.00 0.00 32 989.5
20260506143022 27 319 0.0 0.0 0.00 0.00 0.00 29 989.4
20260506141511 27 277 0.0 0.0 0.00 0.00 0.00 31 989.5
20260506140010 27 303 0.0 0.0 0.00 0.00 0.00 28 989.5
20260506134509 27 328 0.0 0.0 0.00 0.00 0.00 30 989.5
20260506133007 27 287 0.0 0.0 0.00 0.00 0.00 30 989.5
20260506131507 27 321 0.0 0.0 0.00 0.00 0.00 31 989.4
20260506130005 27 302 0.0 0.0 0.00 0.00 0.00 30 989.4
20260506124504 27 343 0.0 0.0 0.00 0.00 0.00 30 989.4
20260506123001 27 298 0.0 0.0 0.00 0.00 0.00 32 989.6
20260506121559 27 274 0.0 0.0 0.00 0.00 0.00 33 989.7
20260506120106 27 353 0.0 0.0 0.00 0.00 0.00 32 989.8
20260506114555 27 279 0.0 0.0 0.00 0.00 0.00 32 989.9
20260506113057 27 250 0.0 0.0 0.00 0.00 0.00 32 989.9
20260506111552 27 235 0.0 0.0 0.00 0.00 0.00 33 990.1
20260506110056 27 270 0.0 0.0 0.00 0.00 0.00 33 990.2
20260506104553 27 260 0.0 0.0 0.00 0.00 0.00 33 990.2
20260506103050 27 280 0.0 0.0 0.00 0.00 0.00 32 990.3
20260506101553 27 270 0.0 0.0 0.00 0.00 0.00 32 990.4
20260506100100 27 298 0.0 0.0 0.00 0.00 0.00 32 990.5
20260506094539 27 265 0.0 0.0 0.00 0.00 0.00 35 990.5